TimeHST,TemperatureF,Dew PointF,Humidity,Sea Level PressureIn,VisibilityMPH,Wind Direction,Wind SpeedMPH,Gust SpeedMPH,PrecipitationIn,Events,Conditions,WindDirDegrees,DateUTC
12:13 AM,64.9,62.1,90,30.14,2.5,Variable,3.5,-,0.14,Rain,Rain,0,2013-02-20 10:13:00
12:21 AM,64.9,62.1,90,30.14,7.0,Variable,3.5,-,0.16,Rain,Light Rain,0,2013-02-20 10:21:00
12:53 AM,64.9,62.1,90,30.12,10.0,SSW,4.6,-,0.17,Rain,Light Rain,210,2013-02-20 10:53:00
1:53 AM,64.9,61.0,87,30.11,6.0,Variable,3.5,-,0.05,Rain,Light Rain,0,2013-02-20 11:53:00
2:13 AM,64.0,61.0,90,30.10,2.5,WSW,8.1,-,0.09,Rain,Light Rain,250,2013-02-20 12:13:00
2:20 AM,64.0,61.0,90,30.10,6.0,WSW,6.9,-,0.11,Rain,Rain,240,2013-02-20 12:20:00
2:53 AM,64.0,62.1,93,30.08,10.0,West,8.1,-,0.17,Rain,Light Rain,260,2013-02-20 12:53:00
3:53 AM,64.0,62.1,93,30.07,10.0,SW,8.1,-,0.07,Rain,Light Rain,230,2013-02-20 13:53:00
4:53 AM,64.9,62.1,90,30.08,10.0,WSW,5.8,-,0.14,Rain,Light Rain,250,2013-02-20 14:53:00
5:04 AM,64.9,62.1,90,30.09,1.8,West,5.8,-,0.01,Rain,Heavy Rain,270,2013-02-20 15:04:00
5:21 AM,64.0,62.1,93,30.09,2.0,SSE,9.2,-,0.28,Rain,Heavy Rain,160,2013-02-20 15:21:00
5:34 AM,64.0,62.1,93,30.10,4.0,WSW,9.2,-,0.42,Rain,Heavy Rain,240,2013-02-20 15:34:00
5:53 AM,64.9,62.1,90,30.09,10.0,West,9.2,-,0.47,,Overcast,280,2013-02-20 15:53:00
6:16 AM,64.9,62.1,90,30.11,10.0,SW,6.9,-,0.00,Rain,Light Rain,220,2013-02-20 16:16:00
6:23 AM,64.9,62.1,90,30.11,10.0,Variable,3.5,-,0.00,Rain,Light Rain,0,2013-02-20 16:23:00
6:53 AM,66.0,62.1,87,30.12,10.0,WSW,6.9,-,0.01,,Overcast,250,2013-02-20 16:53:00
7:06 AM,66.0,63.0,90,30.13,10.0,South,4.6,-,N/A,,Mostly Cloudy,180,2013-02-20 17:06:00
7:37 AM,66.9,63.0,87,30.14,10.0,SW,4.6,-,N/A,,Mostly Cloudy,230,2013-02-20 17:37:00
7:53 AM,68.0,64.0,87,30.14,10.0,West,5.8,-,0.00,,Mostly Cloudy,260,2013-02-20 17:53:00
8:33 AM,70.0,64.0,81,30.16,10.0,Variable,3.5,-,0.00,,Overcast,0,2013-02-20 18:33:00
8:53 AM,71.1,64.9,81,30.16,10.0,SSE,4.6,-,0.00,,Overcast,160,2013-02-20 18:53:00
9:53 AM,75.0,64.9,71,30.17,10.0,ENE,5.8,-,N/A,,Mostly Cloudy,70,2013-02-20 19:53:00
10:53 AM,75.9,64.0,67,30.17,10.0,ENE,16.1,-,N/A,,Mostly Cloudy,70,2013-02-20 20:53:00
11:53 AM,79.0,64.9,62,30.15,10.0,NE,15.0,-,N/A,,Mostly Cloudy,50,2013-02-20 21:53:00
12:02 PM,79.0,64.0,60,30.15,10.0,NE,13.8,-,N/A,,Mostly Cloudy,50,2013-02-20 22:02:00
12:53 PM,78.1,63.0,60,30.12,10.0,ENE,12.7,-,N/A,,Scattered Clouds,60,2013-02-20 22:53:00
1:53 PM,78.1,64.0,62,30.11,10.0,NNE,15.0,-,N/A,,Partly Cloudy,30,2013-02-20 23:53:00
2:53 PM,78.1,64.0,62,30.09,10.0,NNE,12.7,-,N/A,,Mostly Cloudy,20,2013-02-21 00:53:00
3:16 PM,77.0,64.0,64,30.10,10.0,North,12.7,-,N/A,,Mostly Cloudy,10,2013-02-21 01:16:00
3:40 PM,75.0,63.0,66,30.10,10.0,NNE,10.4,-,N/A,,Scattered Clouds,30,2013-02-21 01:40:00
3:53 PM,75.0,63.0,66,30.10,10.0,NNE,9.2,-,N/A,,Scattered Clouds,30,2013-02-21 01:53:00
4:53 PM,75.0,63.0,66,30.10,10.0,NNE,11.5,-,N/A,,Scattered Clouds,20,2013-02-21 02:53:00
5:53 PM,72.0,63.0,73,30.12,10.0,NE,8.1,-,N/A,,Mostly Cloudy,40,2013-02-21 03:53:00
6:53 PM,72.0,63.0,73,30.13,10.0,NE,8.1,-,N/A,,Partly Cloudy,40,2013-02-21 04:53:00
7:53 PM,71.1,63.0,75,30.14,10.0,NE,6.9,-,N/A,,Scattered Clouds,40,2013-02-21 05:53:00
8:53 PM,70.0,62.1,76,30.16,10.0,NNE,5.8,-,0.00,,Mostly Cloudy,30,2013-02-21 06:53:00
9:53 PM,70.0,63.0,78,30.17,10.0,NNW,4.6,-,N/A,,Overcast,340,2013-02-21 07:53:00
10:53 PM,69.1,64.0,84,30.16,10.0,SSE,3.5,-,0.00,Rain,Light Rain,160,2013-02-21 08:53:00
11:48 PM,66.2,62.6,88,30.15,10.0,WSW,5.8,-,0.00,,Mostly Cloudy,240,2013-02-21 09:48:00
11:53 PM,66.9,62.1,84,30.15,10.0,WSW,5.8,-,0.00,,Mostly Cloudy,240,2013-02-21 09:53:00